| time (UTC) | temp F | wind direction | speed MPH | gust MPH | rain 1hr in | rain 24hr in | rain mn in | humidity % | barometer mb |
| 20260504202319 | 60 | 314 | 2.0 | 8.0 | 0.00 | 0.00 | 0.00 | 78 | 1012.1 |
| 20260504201813 | 60 | 264 | 2.0 | 8.0 | 0.00 | 0.00 | 0.00 | 78 | 1012.1 |
| 20260504201307 | 60 | 215 | 2.0 | 14.0 | 0.00 | 0.00 | 0.00 | 78 | 1012.0 |
| 20260504200801 | 60 | 178 | 2.0 | 14.0 | 0.00 | 0.00 | 0.00 | 78 | 1012.2 |
| 20260504200256 | 60 | 35 | 3.0 | 14.0 | 0.00 | 0.00 | 0.00 | 78 | 1012.2 |
| 20260504195750 | 60 | 229 | 3.0 | 14.0 | 0.00 | 0.00 | 0.00 | 78 | 1012.1 |
| 20260504195243 | 60 | 244 | 2.0 | 5.0 | 0.00 | 0.00 | 0.00 | 78 | 1012.1 |
| 20260504194737 | 60 | 248 | 2.0 | 11.0 | 0.00 | 0.00 | 0.00 | 78 | 1012.1 |
| 20260504194232 | 60 | 336 | 2.0 | 11.0 | 0.00 | 0.00 | 0.00 | 79 | 1012.0 |
| 20260504193726 | 59 | 19 | 2.0 | 11.0 | 0.00 | 0.00 | 0.00 | 78 | 1012.0 |
| 20260504193220 | 59 | 190 | 3.0 | 11.0 | 0.00 | 0.00 | 0.00 | 79 | 1012.0 |
| 20260504192714 | 59 | 200 | 2.0 | 7.0 | 0.00 | 0.00 | 0.00 | 79 | 1012.0 |
| 20260504192208 | 59 | 190 | 2.0 | 7.0 | 0.00 | 0.00 | 0.00 | 78 | 1012.0 |
| 20260504191702 | 59 | 200 | 2.0 | 6.0 | 0.00 | 0.00 | 0.00 | 78 | 1012.1 |
| 20260504191156 | 59 | 281 | 2.0 | 7.0 | 0.00 | 0.00 | 0.00 | 78 | 1012.1 |
| 20260504190649 | 59 | 191 | 2.0 | 6.0 | 0.00 | 0.00 | 0.00 | 79 | 1012.0 |
| 20260504190143 | 59 | 195 | 2.0 | 6.0 | 0.00 | 0.00 | 0.00 | 79 | 1012.0 |
| 20260504185142 | 59 | 267 | 2.0 | 11.0 | 0.00 | 0.00 | 0.00 | 79 | 1012.0 |
| 20260504184639 | 59 | 169 | 2.0 | 11.0 | 0.00 | 0.00 | 0.00 | 80 | 1012.0 |
| 20260504184143 | 59 | 153 | 2.0 | 4.0 | 0.00 | 0.00 | 0.00 | 80 | 1012.0 |
| 20260504183138 | 59 | 287 | 2.0 | 8.0 | 0.00 | 0.00 | 0.00 | 80 | 1012.0 |
| 20260504182638 | 58 | 206 | 2.0 | 10.0 | 0.00 | 0.00 | 0.00 | 80 | 1012.0 |
| 20260504182138 | 59 | 271 | 2.0 | 10.0 | 0.00 | 0.00 | 0.00 | 80 | 1012.0 |
| 20260504181638 | 59 | 347 | 2.0 | 4.0 | 0.00 | 0.00 | 0.00 | 81 | 1012.0 |
| 20260504181137 | 59 | 347 | 2.0 | 4.0 | 0.00 | 0.00 | 0.00 | 81 | 1011.9 |
| 20260504180638 | 59 | 169 | 1.0 | 4.0 | 0.00 | 0.00 | 0.00 | 81 | 1011.9 |
| 20260504175634 | 58 | 182 | 2.0 | 6.0 | 0.00 | 0.00 | 0.00 | 82 | 1011.8 |
| 20260504175133 | 58 | 182 | 2.0 | 5.0 | 0.00 | 0.00 | 0.00 | 82 | 1011.7 |
| 20260504174634 | 58 | 217 | 2.0 | 6.0 | 0.00 | 0.00 | 0.00 | 83 | 1011.7 |
| 20260504174133 | 58 | 166 | 1.0 | 6.0 | 0.00 | 0.00 | 0.00 | 83 | 1011.7 |
| 20260504173631 | 58 | 204 | 2.0 | 4.0 | 0.00 | 0.00 | 0.00 | 83 | 1011.7 |
| 20260504173131 | 58 | 156 | 2.0 | 4.0 | 0.00 | 0.00 | 0.00 | 83 | 1011.7 |
| 20260504172632 | 58 | 188 | 2.0 | 5.0 | 0.00 | 0.00 | 0.00 | 84 | 1011.6 |
| 20260504172131 | 58 | 161 | 2.0 | 6.0 | 0.00 | 0.00 | 0.00 | 84 | 1011.7 |
| 20260504171632 | 58 | 163 | 2.0 | 6.0 | 0.00 | 0.00 | 0.00 | 84 | 1011.6 |
| 20260504171132 | 57 | 191 | 2.0 | 8.0 | 0.00 | 0.00 | 0.00 | 85 | 1011.6 |
| 20260504170632 | 57 | 204 | 2.0 | 8.0 | 0.00 | 0.00 | 0.00 | 85 | 1011.6 |
| 20260504170131 | 57 | 205 | 1.0 | 4.0 | 0.00 | 0.00 | 0.00 | 85 | 1011.6 |
| 20260504160124 | 56 | 213 | 1.0 | 4.0 | 0.00 | 0.00 | 0.00 | 88 | 1011.1 |
| 20260504151115 | 55 | 205 | 2.0 | 10.0 | 0.00 | 0.00 | 0.00 | 89 | 1010.8 |
| 20260504150115 | 55 | 183 | 2.0 | 5.0 | 0.00 | 0.00 | 0.00 | 89 | 1010.6 |
| 20260504140540 | 54 | 173 | 1.0 | 5.0 | 0.00 | 0.00 | 0.00 | 90 | 1010.2 |
| 20260504130428 | 54 | 109 | 1.0 | 8.0 | 0.00 | 0.00 | 0.00 | 90 | 1009.7 |
| 20260504120316 | 54 | 207 | 2.0 | 5.0 | 0.00 | 0.00 | 0.00 | 90 | 1009.4 |
| 20260504110710 | 54 | 201 | 2.0 | 4.0 | 0.00 | 0.00 | 0.00 | 89 | 1009.0 |
| 20260504110204 | 54 | 200 | 2.0 | 8.0 | 0.00 | 0.00 | 0.00 | 89 | 1008.9 |
| 20260504100606 | 53 | 165 | 2.0 | 5.0 | 0.00 | 0.00 | 0.00 | 88 | 1008.6 |
| 20260504100110 | 53 | 110 | 2.0 | 6.0 | 0.00 | 0.00 | 0.00 | 88 | 1008.6 |
| 20260504081557 | 53 | 270 | 0.0 | 0.0 | 0.00 | 0.00 | 0.00 | 83 | 1007.4 |
| 20260504081057 | 53 | 270 | 0.0 | 0.0 | 0.00 | 0.00 | 0.00 | 84 | 1007.5 |
| 20260504080556 | 53 | 270 | 0.0 | 0.0 | 0.00 | 0.00 | 0.00 | 83 | 1007.4 |
| 20260504045524 | 58 | 262 | 4.0 | 7.0 | 0.00 | 0.00 | 0.00 | 81 | 1007.4 |
| 20260504045024 | 58 | 297 | 5.0 | 9.0 | 0.00 | 0.00 | 0.00 | 81 | 1007.3 |
| 20260504044521 | 58 | 209 | 5.0 | 10.0 | 0.00 | 0.00 | 0.00 | 81 | 1007.4 |
| 20260504043521 | 58 | 248 | 5.0 | 10.0 | 0.00 | 0.00 | 0.00 | 81 | 1007.3 |
| 20260504042522 | 58 | 260 | 5.0 | 9.0 | 0.00 | 0.00 | 0.00 | 81 | 1007.3 |
| 20260504042021 | 58 | 261 | 5.0 | 9.0 | 0.00 | 0.00 | 0.00 | 81 | 1007.2 |
| 20260504041522 | 58 | 263 | 5.0 | 8.0 | 0.00 | 0.00 | 0.00 | 81 | 1007.3 |
| 20260504040520 | 58 | 266 | 5.0 | 8.0 | 0.00 | 0.00 | 0.00 | 80 | 1007.3 |
| 20260504040015 | 58 | 286 | 6.0 | 9.0 | 0.00 | 0.00 | 0.00 | 79 | 1007.3 |
| 20260504034456 | 59 | 283 | 6.0 | 10.0 | 0.00 | 0.00 | 0.00 | 77 | 1007.1 |
| 20260504033950 | 59 | 267 | 5.0 | 9.0 | 0.00 | 0.00 | 0.00 | 77 | 1007.2 |
| 20260504033444 | 59 | 239 | 5.0 | 11.0 | 0.00 | 0.00 | 0.00 | 76 | 1007.2 |
| 20260504032938 | 60 | 274 | 5.0 | 11.0 | 0.00 | 0.00 | 0.00 | 75 | 1007.1 |
| 20260504032432 | 60 | 275 | 5.0 | 10.0 | 0.00 | 0.00 | 0.00 | 75 | 1007.1 |
| 20260504031926 | 60 | 262 | 5.0 | 10.0 | 0.00 | 0.00 | 0.00 | 75 | 1007.0 |
| 20260504031420 | 60 | 264 | 5.0 | 10.0 | 0.00 | 0.00 | 0.00 | 75 | 1007.1 |
| 20260504030914 | 61 | 262 | 5.0 | 10.0 | 0.00 | 0.00 | 0.00 | 75 | 1007.0 |
| 20260504030409 | 61 | 281 | 5.0 | 10.0 | 0.00 | 0.00 | 0.00 | 75 | 1007.0 |
| 20260504025902 | 61 | 269 | 5.0 | 10.0 | 0.00 | 0.00 | 0.00 | 74 | 1007.1 |
| 20260504025357 | 62 | 254 | 5.0 | 10.0 | 0.00 | 0.00 | 0.00 | 75 | 1007.1 |
| 20260504024850 | 62 | 244 | 5.0 | 10.0 | 0.00 | 0.00 | 0.00 | 75 | 1007.1 |
| 20260504024344 | 62 | 248 | 5.0 | 12.0 | 0.00 | 0.00 | 0.00 | 75 | 1007.0 |
| 20260504023332 | 63 | 244 | 5.0 | 10.0 | 0.00 | 0.00 | 0.00 | 74 | 1007.1 |
| 20260504022826 | 63 | 271 | 5.0 | 9.0 | 0.00 | 0.00 | 0.00 | 73 | 1007.1 |
| 20260504021814 | 64 | 292 | 5.0 | 11.0 | 0.00 | 0.00 | 0.00 | 72 | 1007.2 |
| 20260504020256 | 65 | 242 | 5.0 | 11.0 | 0.00 | 0.00 | 0.00 | 69 | 1007.3 |
| 20260504015249 | 66 | 275 | 5.0 | 9.0 | 0.00 | 0.00 | 0.00 | 66 | 1007.3 |
| 20260504014742 | 67 | 255 | 5.0 | 11.0 | 0.00 | 0.00 | 0.00 | 64 | 1007.3 |
| 20260504014240 | 67 | 230 | 5.0 | 11.0 | 0.00 | 0.00 | 0.00 | 65 | 1007.3 |
| 20260504013742 | 66 | 254 | 5.0 | 12.0 | 0.00 | 0.00 | 0.00 | 65 | 1007.4 |
| 20260504013241 | 66 | 246 | 5.0 | 12.0 | 0.00 | 0.00 | 0.00 | 65 | 1007.5 |
| 20260504012741 | 66 | 286 | 6.0 | 12.0 | 0.00 | 0.00 | 0.00 | 65 | 1007.5 |
| 20260504011739 | 67 | 260 | 6.0 | 13.0 | 0.00 | 0.00 | 0.00 | 63 | 1007.7 |
| 20260504011239 | 67 | 276 | 6.0 | 13.0 | 0.00 | 0.00 | 0.00 | 61 | 1007.7 |
| 20260504010738 | 68 | 279 | 6.0 | 13.0 | 0.00 | 0.00 | 0.00 | 60 | 1007.7 |
| 20260504005742 | 69 | 311 | 6.0 | 13.0 | 0.00 | 0.00 | 0.00 | 57 | 1007.8 |
| 20260504005237 | 69 | 280 | 6.0 | 13.0 | 0.00 | 0.00 | 0.00 | 56 | 1007.8 |
| 20260504004737 | 69 | 232 | 6.0 | 12.0 | 0.00 | 0.00 | 0.00 | 56 | 1007.9 |
| 20260504004237 | 69 | 243 | 5.0 | 12.0 | 0.00 | 0.00 | 0.00 | 55 | 1007.9 |
| 20260504003737 | 70 | 265 | 6.0 | 11.0 | 0.00 | 0.00 | 0.00 | 55 | 1007.9 |
| 20260504003237 | 70 | 280 | 6.0 | 11.0 | 0.00 | 0.00 | 0.00 | 54 | 1007.9 |
| 20260504002736 | 71 | 282 | 6.0 | 11.0 | 0.00 | 0.00 | 0.00 | 54 | 1008.0 |
| 20260504002230 | 71 | 313 | 6.0 | 11.0 | 0.00 | 0.00 | 0.00 | 55 | 1008.0 |
| 20260504001725 | 71 | 269 | 6.0 | 12.0 | 0.00 | 0.00 | 0.00 | 56 | 1008.0 |
| 20260504000219 | 71 | 279 | 6.0 | 14.0 | 0.00 | 0.00 | 0.00 | 57 | 1008.0 |
| 20260503235717 | 71 | 280 | 6.0 | 15.0 | 0.00 | 0.00 | 0.00 | 56 | 1008.1 |
| 20260503235222 | 71 | 288 | 6.0 | 15.0 | 0.00 | 0.00 | 0.00 | 54 | 1008.2 |
| 20260503234722 | 71 | 286 | 7.0 | 13.0 | 0.00 | 0.00 | 0.00 | 55 | 1008.2 |
| 20260503234221 | 70 | 262 | 7.0 | 13.0 | 0.00 | 0.00 | 0.00 | 56 | 1008.3 |
| 20260503233721 | 70 | 277 | 7.0 | 15.0 | 0.00 | 0.00 | 0.00 | 56 | 1008.4 |
| 20260503233215 | 70 | 296 | 7.0 | 15.0 | 0.00 | 0.00 | 0.00 | 57 | 1008.4 |
| 20260503232713 | 70 | 269 | 7.0 | 17.0 | 0.00 | 0.00 | 0.00 | 58 | 1008.5 |
| 20260503232213 | 70 | 219 | 7.0 | 17.0 | 0.00 | 0.00 | 0.00 | 57 | 1008.5 |
| 20260503231712 | 70 | 318 | 6.0 | 12.0 | 0.00 | 0.00 | 0.00 | 58 | 1008.6 |
| 20260503231212 | 70 | 232 | 6.0 | 12.0 | 0.00 | 0.00 | 0.00 | 58 | 1008.6 |
| 20260503230712 | 70 | 246 | 7.0 | 16.0 | 0.00 | 0.00 | 0.00 | 59 | 1008.7 |
| 20260503230211 | 70 | 282 | 7.0 | 16.0 | 0.00 | 0.00 | 0.00 | 58 | 1008.7 |
| 20260503225207 | 70 | 273 | 7.0 | 16.0 | 0.00 | 0.00 | 0.00 | 57 | 1008.9 |
| 20260503224707 | 71 | 253 | 6.0 | 15.0 | 0.00 | 0.00 | 0.00 | 56 | 1008.9 |
| 20260503224206 | 71 | 247 | 6.0 | 14.0 | 0.00 | 0.00 | 0.00 | 56 | 1009.0 |
| 20260503223707 | 71 | 283 | 6.0 | 14.0 | 0.00 | 0.00 | 0.00 | 56 | 1009.0 |
| 20260503223207 | 71 | 281 | 5.0 | 12.0 | 0.00 | 0.00 | 0.00 | 55 | 1009.1 |
| 20260503222707 | 72 | 285 | 6.0 | 11.0 | 0.00 | 0.00 | 0.00 | 56 | 1009.2 |
| 20260503222207 | 72 | 259 | 6.0 | 11.0 | 0.00 | 0.00 | 0.00 | 55 | 1009.3 |
| 20260503221706 | 72 | 279 | 6.0 | 15.0 | 0.00 | 0.00 | 0.00 | 55 | 1009.3 |
| 20260503221207 | 72 | 291 | 6.0 | 15.0 | 0.00 | 0.00 | 0.00 | 55 | 1009.3 |
| 20260503220706 | 72 | 238 | 6.0 | 15.0 | 0.00 | 0.00 | 0.00 | 55 | 1009.3 |
| 20260503220206 | 72 | 304 | 6.0 | 15.0 | 0.00 | 0.00 | 0.00 | 53 | 1009.3 |
| 20260503215706 | 73 | 286 | 6.0 | 12.0 | 0.00 | 0.00 | 0.00 | 52 | 1009.4 |
| 20260503215206 | 73 | 279 | 5.0 | 12.0 | 0.00 | 0.00 | 0.00 | 53 | 1009.4 |
| 20260503214707 | 72 | 294 | 6.0 | 13.0 | 0.00 | 0.00 | 0.00 | 54 | 1009.5 |
| 20260503214207 | 73 | 276 | 6.0 | 13.0 | 0.00 | 0.00 | 0.00 | 52 | 1009.5 |
| 20260503213706 | 73 | 266 | 6.0 | 13.0 | 0.00 | 0.00 | 0.00 | 52 | 1009.5 |
| 20260503213207 | 73 | 263 | 6.0 | 13.0 | 0.00 | 0.00 | 0.00 | 52 | 1009.6 |
| 20260503212705 | 73 | 274 | 6.0 | 13.0 | 0.00 | 0.00 | 0.00 | 51 | 1009.6 |
| 20260503212200 | 74 | 276 | 5.0 | 12.0 | 0.00 | 0.00 | 0.00 | 50 | 1009.6 |
| 20260503211146 | 74 | 275 | 6.0 | 12.0 | 0.00 | 0.00 | 0.00 | 50 | 1009.6 |
| 20260503210640 | 74 | 290 | 6.0 | 12.0 | 0.00 | 0.00 | 0.00 | 49 | 1009.7 |
| 20260503210133 | 75 | 211 | 5.0 | 12.0 | 0.00 | 0.00 | 0.00 | 47 | 1009.6 |
| 20260503205628 | 75 | 272 | 5.0 | 12.0 | 0.00 | 0.00 | 0.00 | 48 | 1009.7 |
| 20260503205122 | 75 | 292 | 6.0 | 12.0 | 0.00 | 0.00 | 0.00 | 49 | 1009.7 |
| 20260503204117 | 76 | 287 | 4.0 | 12.0 | 0.00 | 0.00 | 0.00 | 47 | 1009.8 |
| 20260503203616 | 76 | 286 | 4.0 | 10.0 | 0.00 | 0.00 | 0.00 | 49 | 1009.9 |
| 20260503203117 | 75 | 251 | 4.0 | 10.0 | 0.00 | 0.00 | 0.00 | 50 | 1009.9 |
| 20260503202616 | 75 | 240 | 4.0 | 11.0 | 0.00 | 0.00 | 0.00 | 51 | 1010.0 |